Location: Dampvalley
(47.9094°N, 6.1967°E)
Time: 02:33:56
(UTC+00:00)

N. Korean satellite - Pass Details

Date: 04 December 2022
Orbit: 408 x 444 km, 97.3° (Epoch: 28 January)

Event Time Altitude Azimuth Distance (km) Brightness Sun altitude
Rises 17:02:37 0° 208° (SSW) 2,458 10.9 -12.7°
Reaches altitude 10° 17:05:20 10° 233° (SW) 1,603 10.4 -13.1°
Maximum altitude 17:07:22 15° 269° (W) 1,345 9.9 -13.4°
Drops below altitude 10° 17:09:25 10° 306° (NW) 1,627 9.7 -13.8°
Sets 17:12:13 0° 330° (NNW) 2,518 10.4 -14.2°
